Regional Weather Roundup
Issued by NWS

Home | Current Version | Previous Version | Text Only | Print | Product List | Glossary On
Versions: 1 2 3 4 5 6 7 8 9 10 11 12 13 14 15 16 17 18 19 20 21 22 23 24 25 26 27 28
000
ASUS42 KTBW 200016
RWRFL
FLORIDA REGIONAL WEATHER ROUNDUP
NATIONAL WEATHER SERVICE TAMPA BAY RUSKIN FL
800 PM EDT THU APR 19 2018

NOTE: "FAIR" INDICATES FEW OR NO CLOUDS BELOW 12,000 FEET WITH NO
SIGNIFICANT WEATHER AND/OR OBSTRUCTIONS TO VISIBILITY.

FLZ001>010-012>015-112-114-115-200100-
PANHANDLE FLORIDA

CITY           SKY/WX    TMP DP  RH WIND       PRES   REMARKS
PENSACOLA      FAIR      74  43  32 N14       30.08R
PENSACOLA NAS  FAIR      74  46  36 N10       30.08R
MILTON NAS     FAIR      71  45  39 N13       30.10R
CRESTVIEW      FAIR      73  45  36 N9G17     30.09R
DUKE FIELD     PTCLDY    74  47  37 N12       30.07R
VALPARAISO     PTCLDY    77  46  33 N12       30.05R
MARY ESTHER    CLEAR     75  47  36 NW12      30.05R
TRI COUNTY     FAIR      72  48  42 NW8       30.07R
PANAMA CITY    FAIR      72  64  76 SW10      30.04R
TYNDALL AFB    FAIR      71  67  87 W10       30.05S
APALACHICOLA   FAIR      73  68  84 W12       30.05R

STATION/POSITION SKY/WX   TEMP    WIND        PRES    WAVE   SWELL
                          AIR SEA DIR/SP/G            HT/PER HT/PER
                          (F)     (DEG/KT/KT) (MB)    (FT/S) (FT/S)
30.1N   87.6W              71     280/ 14/ 16 1018.4
29.2N   88.2W                 72  310/  8/ 10 1019.4F   2/ 5   2/ 5
28.8N   86.0W              72 74  270/ 10/ 12 1018.1F   2/ 5   2/ 5
PANAMA CITY BEAC              70  270/ 12/ 13 1018.0R
TOWER C                    70     250/ 12/ 14 1017.9S

$$
FLZ011-016>038-118-127-128-134-139-239-200100-
NORTH FLORIDA

CITY           SKY/WX    TMP DP  RH WIND       PRES   REMARKS
MARIANNA       FAIR      76  48  37 N13       30.04R
TALLAHASSEE    FAIR      80  60  50 N8        30.01R
PERRY          FAIR      73  65  78 SW7       30.03S
LIVE OAK       PTCLDY    75  63  64 SW7       30.03S
CROSS CITY     FAIR      71  64  78 SW8       30.05S
LAKE CITY      FAIR      72  63  73 SW10      30.03R
GAINESVILLE    FAIR      74  56  53 SW12      30.06S
WILLISTON      CLEAR     73  61  64 SW9       30.06S
PALATKA        FAIR      75  57  53 W8        30.03S
MAYPORT NAS    FAIR      79  54  41 SW12      29.99R
JACKSONVILLE   FAIR      77  55  46 SW9       29.99R
JAX NAS        FAIR      81  53  37 SW13      30.01R
JAX CECIL      CLEAR     77  55  47 SW9       30.01R
FERNANDINA BEA FAIR      79  54  41 W8        29.98R
ST AUGUSTINE   FAIR      77  55  46 SW7       30.02R
PALM COAST     FAIR      75  60  58 SW5       30.03R

STATION/POSITION SKY/WX   TEMP    WIND        PRES    WAVE   SWELL
                          AIR SEA DIR/SP/G            HT/PER HT/PER
                          (F)     (DEG/KT/KT) (MB)    (FT/S) (FT/S)
SHELL POINT      NOT AVBL
KEATON BEACH               71     230/ 16/ 18 1017.1F
CEDAR KEY                  71     270/ 10/ 13 1018.4F
FERNANDINA                    71  230/  5/ 11 1016.2R
30.7N   81.3W                 67                N/A     2/ 9
MAYPORT                       70  240/ 11/ 13 1015.7R
31.4N   80.9W              71 66  290/  6/  8 1014.6R   3/ 5   2/ 5
ST AUGUSTINE               78 69  240/  6/  8 1017.1R

$$
FLZ040-043>046-052-053-057-058-063-144-200100-
INTERIOR CENTRAL FLORIDA

CITY           SKY/WX    TMP DP  RH WIND       PRES   REMARKS
OCALA          FAIR      72  62  71 SW8       30.07R
LEESBURG       FAIR      75  64  68 W7        30.07S
SANFORD        FAIR      77  61  57 W8        30.05S
ORLANDO EXEC   FAIR      78  61  55 W12       30.06S
ORLANDO INTL   MOCLDY    77  62  59 W10       30.06S
KISSIMMEE      FAIR      76  62  62 W8        30.08R
WINTER HAVEN   FAIR      76  62  62 NW9       30.09R
LAKELAND       CLEAR     75  61  60 NW9       30.09R
SEBRING        FAIR      80  58  48 NW8       30.07R
OKEECHOBEE     FAIR      77  61  57 NW3       30.05R

$$
FLZ041-047-054-059-064-141-147-200100-
EAST CENTRAL FLORIDA

CITY           SKY/WX    TMP DP  RH WIND       PRES   REMARKS
DAYTONA BEACH  FAIR      76  62  62 SW8       30.04R
DELAND         FAIR      77  61  57 SW9G16    30.04S
NEW SMYRNA BEA CLEAR     77  59  53 W8        30.05R
JFK SPACE CTR  FAIR      78  62  56 NW9       30.04R
TITUSVILLE     PTCLDY    86  57  37 NW14      30.04S
CAPE CANAVERAL FAIR      75  68  78 S6        30.04R HAZE
PATRICK AFB    FAIR      76  69  79 S12       30.04S
MELBOURNE      FAIR      78  68  71 SE3       30.04R
VERO BEACH     FAIR      77  66  68 S6        30.05R
FT PIERCE      FAIR      76  66  71 SE9       30.04R
STUART         CLEAR     75  64  69 SE7       30.06S

STATION/POSITION SKY/WX   TEMP    WIND        PRES    WAVE   SWELL
                          AIR SEA DIR/SP/G            HT/PER HT/PER
                          (F)     (DEG/KT/KT) (MB)    (FT/S) (FT/S)
28.5N   80.2W              75 74  170/ 10/ 12 1017.3R   2/ 9   2/ 9
28.9N   78.5W              74 74  190/  4/  6 1017.9F   3/ 5   3/ 5
TRIDENT PIER                  76  150/ 10/ 13 1018.7R
28.4N   80.5W                 76                N/A     2/ 3
27.5N   80.2W                 75                N/A     2/ 3

$$
FLZ050-056-061-142-242-148-248-149-249-151-251-155-255-
160-260-200100-
WEST CENTRAL FLORIDA

CITY           SKY/WX    TMP DP  RH WIND       PRES   REMARKS
CRYSTAL RIVER  FAIR      70  63  78 W5        30.08S
INVERNESS      FAIR      72  63  73 CALM      30.08S
BROOKSVILLE    FAIR      70  61  73 W7        30.08F
CLEARWATER AIR FAIR      72  63  73 NW3       30.08F
ST PETE CLEARW FAIR      73  62  68 NW6       30.08F
TAMPA INTL     FAIR      74  61  63 NW7       30.09S
TAMPA EXEC     FAIR      72  63  73 NW5       30.09S
PLANT CITY     FAIR      75  61  60 NW6       30.10S
MACDILL AFB    FAIR      73  64  73 NW5       30.08F
PETER O KNIGHT CLOUDY    73  63  68 W3        30.09S
ST PETERSBURG  FAIR      75  64  68 NW8       30.07S
SARASOTA       FAIR      73  65  75 NW7       30.08S
VENICE         FAIR      75  68  78 NW8       30.10S

STATION/POSITION SKY/WX   TEMP    WIND        PRES    WAVE   SWELL
                          AIR SEA DIR/SP/G            HT/PER HT/PER
                          (F)     (DEG/KT/KT) (MB)    (FT/S) (FT/S)
27.3N   84.2W                 75                N/A     1/ 7
CLEARWATER BEACH              75  280/  4/  5 1018.9F
MIDDLE TAMPA BAY                  310/  9/ 10 1019.1S
VENICE                     73 76  320/ 10/ 11 1019.0F

$$
FLZ066-069-070-075>078-162-262-165-265-200100-
SOUTHWEST FLORIDA AND KEYS

CITY           SKY/WX    TMP DP  RH WIND       PRES   REMARKS
PUNTA GORDA    FAIR      76  59  55 NW9       30.09S
FT MYERS       FAIR      76  61  59 NW9       30.07S
SOUTHWEST INTL FAIR      75  59  57 W6        30.07S
NAPLES         FAIR      75  68  78 NW7       30.07S
MARCO ISLAND   FAIR      74  66  76 NW9       30.08S
IMMOKALEE      FAIR      77  61  57 W7G13     30.07S
MARATHON       FAIR      76  65  68 NW5       30.07S
KEY WEST NAS   FAIR      75  62  64 N6        30.07S
KEY WEST INTL  FAIR      77  65  66 NW6       30.08R

STATION/POSITION SKY/WX   TEMP    WIND        PRES    WAVE   SWELL
                          AIR SEA DIR/SP/G            HT/PER HT/PER
                          (F)     (DEG/KT/KT) (MB)    (FT/S) (FT/S)
NAPLES                        80              1018.2F
26.0N   85.6W              76 80  360/  6/ 10 1018.6
DRY TORTUGAS               76     350/  9/ 10 1019.0R
SAND KEY                   76                 1018.4R
SOMBRERO KEY               76     310/  6/  8 1017.6S
LONG KEY                   77 78  320/  4/  5 1018.1R
MOLASSES REEF              77 79  200/  3/  3 1018.6R

$$
FLZ067-068-071>074-168-172>174-200100-
SOUTHEAST FLORIDA

CITY           SKY/WX    TMP DP  RH WIND       PRES   REMARKS
W PALM BEACH   FAIR      76  64  66 S8        30.06S
BOCA RATON     CLEAR     75  63  64 SE7       30.06S
FT LAUDER-EXEC FAIR      77  63  61 SE9       30.06R
FT LAUDERDALE  MOCLDY    77  64  64 S10       30.06R
POMPANO BEACH  FAIR      77  64  64 SE9       30.06S
PEMBROKE PINES FAIR      79  63  57 SE10      30.08R
OPA LOCKA      FAIR      78  63  59 SE10      30.07R
MIAMI          MOCLDY    77  64  64 SE9       30.07R
WEST KENDALL   FAIR      79  63  57 S7        30.06R
HOMESTEAD      FAIR      75  64  68 S6        30.06R

STATION/POSITION SKY/WX   TEMP    WIND        PRES    WAVE   SWELL
                          AIR SEA DIR/SP/G            HT/PER HT/PER
                          (F)     (DEG/KT/KT) (MB)    (FT/S) (FT/S)
PORT EVERGLADES            77     160/  7/ 11 1018.1
VIRGINIA KEY                  79  150/  6/  8 1017.6R
LAKE WORTH                    79  180/ 11/ 12 1018.9R
FOWEY ROCKS                77 78  170/  9/ 10 1018.7R
SETTLEMENT POINT           75     170/  4/  5 1018.6F

$$





USA.gov is the U.S. government's official web portal to all federal, state and local government web resources and services.